Location: Caltech
(34.1382°N, 118.1253°W)
Time: 15:29:57
(UTC-07:00)

Iridium 3 - Visible Passes

Search period start: 26 March 2015 00:00
Search period end: 05 April 2015 00:00
Orbit: 776 x 779 km, 86.4° (Epoch: 26 March)

Date Brightness Start Highest point End Pass type
(mag) Time Alt. Az. Time Alt. Az. Time Alt. Az.
26 Mar 5.7 04:34:36 64° N 04:34:36 64° N 04:39:00 10° N visible
27 Mar 6.6 04:01:29 41° NE 04:01:29 41° NE 04:05:20 10° NNE visible
27 Mar 7.2 05:41:58 15° WNW 05:41:58 15° WNW 05:44:15 10° NW visible
28 Mar 7.6 03:28:19 23° ENE 03:28:19 23° ENE 03:31:12 10° NNE visible
28 Mar 6.7 05:08:49 26° WNW 05:08:49 26° WNW 05:12:02 10° NNW visible
29 Mar 8.4 02:55:08 12° ENE 02:55:08 12° ENE 02:56:05 10° NE visible
29 Mar 6.3 04:35:37 38° NNW 04:35:37 38° NNW 04:39:01 10° N visible
30 Mar 6.7 04:02:24 37° NNE 04:02:24 37° NNE 04:05:34 10° N visible
31 Mar 7.5 03:29:10 26° NE 03:29:10 26° NE 03:31:43 10° NNE visible
31 Mar 7.3 05:09:39 16° NW 05:09:39 16° NW 05:11:29 10° NNW visible
01 Apr 8.2 02:55:54 15° NE 02:55:54 15° NE 02:57:20 10° NE visible
01 Apr 6.9 04:36:23 25° NW 04:36:23 25° NW 04:38:51 10° NNW visible
02 Apr 6.9 04:03:06 29° N 04:03:06 29° N 04:05:39 10° N visible
03 Apr 7.4 03:29:48 26° NNE 03:29:48 26° NNE 03:32:03 10° N visible
03 Apr 7.7 05:10:16 10° NW 05:10:16 10° NW 05:10:23 10° NW visible
04 Apr 8.0 02:56:29 18° NE 02:56:29 18° NE 02:58:01 10° NNE visible
04 Apr 7.4 04:36:57 17° NW 04:36:57 17° NW 04:38:29 10° NNW visible
